STARLINK-32141, 60290

Orbit data source: Space-Track

STARLINK-32141, 60290 is a payload satellite owned by SpaceX/Seattle (US) in LEO that was launched on Sun, 28 Jul 2024 UTC via an FALCON 9 launch vehicle from the Air Force Eastern Test Range (AFETR). Payload-class satellites include a variety of spacecraft equipped with specific instruments for various scientific and technological missions. These include communications satellites like Starlink; space stations such as the ISS; scientific satellites like the Hubble; Earth observation satellites from companies like Planet Labs, Umbra, and HawkEye 360; GPS; miniature CubeSats for education and research; and military/defense satellites.

Loading next visibility...
Identifier
60290, 2024-132N
Orbit
LEO
Last TLE update
1 day ago
Origin
Manufacturer
SpaceX/Seattle
Mission
Operational spacecraft
Bus & Motor
STARLINK V2M, Unknown motor
Mass
730 kg wet, ~700 kg dry
Launch date (UTC)
2024-07-28 (11 months ago)
Launch vehicle
FALCON 9
Launch site
Air Force Eastern Test Range (AFETR)
Object type
Payload
Rocket body
Debris
Shape & HBR
Unknown
Radar Cross Section
Large (>1 m²)

Expand to show TLE details & history

TLE from 1 day ago
0 STARLINK-32141
1 60290U 24132N   25183.15955219  .00000048  00000-0  13757-4 0  9994
2 60290  53.1597 136.0812 0001209  93.9980 266.1159 15.30198456 53202
Epoch: 2025-07-02T03:49Z
TLE epoch observation values (Epoch: 2025-07-02T03:49:45.309Z)
Latitude
-0.00001°
Longitude
158.19776°
Altitude
476.176 km
Speed
7.629 km/s
True Right ascension
09h 04m 19s
True Declination
0° 00' 00"
Sunlit
Object was in daylight at epoch
Visualization orbit readout
Latitude
25.60732°
Longitude
173.93266°
Altitude
475.924 km
Speed
7.632 km/s
Apparent Right ascension
08h 29m 12s
Apparent Declination
-6° 33' 01"
Sunlit
Object is in daylight
Visualization observer readout
Local Sidereal Time
18:22:50
Azimuth
311.196° NW
Elevation
-46.242°
Doppler factor
1
Orbital elements
Apogee altitude
476.305 km
Perigee altitude
474.648 km
Semi-major axis
6,853.613 km
Eccentricity
0.00012
Inclination
53.1597°
RAAN
136.0812°
Arg. of periapsis
93.998°
True anomaly
Unknown
Mean anomaly
266.1159°
Eccentric anomaly
Unknown
Mean motion
3.82528 °/min
Orbital period
94.11 mins
BSTAR
0.000013757
Loading maneuver chart data...
Loading SW <> Apogee altitude chart data...
Loading historical data...
Loading historical data...
Loading historical data...
Loading historical data...
Loading historical data...
Loading historical data...
Loading historical data...

STARLINK-32141 Visibility forecast

Observer location: undefined°, undefined°

Span
Click to sort rows by Start time (UTC) header in descending order
Start Az.
Max El. time (UTC)
Max El. Az.
Max El.
End time (UTC)
End Az.
6 mins2025-07-03 07:00:08.427Z292.233° WNW2025-07-03 07:03:08.427Z229.62° WSW30.265°2025-07-03 07:06:08.427Z162.696° S
4 mins2025-07-03 22:19:08.427Z173.984° S2025-07-03 22:21:08.427Z127.96° SE22.976°2025-07-03 22:23:08.427Z84.474° E
5 mins2025-07-03 23:57:08.427Z273.72° WNW2025-07-03 23:59:08.427Z341.078° N31.568°2025-07-04 00:02:08.427Z36.723° NE
4 mins2025-07-04 04:54:08.427Z348.248° N2025-07-04 04:56:08.427Z40.901° NE24.001°2025-07-04 04:58:08.427Z81.171° E
5 mins2025-07-04 06:32:08.427Z280.37° WNW2025-07-04 06:34:08.427Z206.498° SW32.977°2025-07-04 06:37:08.427Z154.544° SSE
|